Location: ??
(35.5653°N, 139.6194°E)
Time: 02:53:28
(UTC+00:00)

Cosmos 1408 Rocket - Pass Details

Date: 20 November 2019
Orbit: 602 x 630 km, 82.6° (Epoch: 05 December)

Event Time Altitude Azimuth Distance (km) Brightness Sun altitude
Rises 20:08:00 0° 208° (SSW) 2,838 6.8 -15.1°
Reaches altitude 10° 20:10:23 10° 219° (SW) 1,942 5.9 -14.6°
Maximum altitude 20:14:12 31° 282° (WNW) 1,070 4.2 -13.9°
Drops below altitude 10° 20:18:05 10° 345° (NNW) 1,964 5.8 -13.1°
Sets 20:20:31 0° 356° (N) 2,877 6.8 -12.6°
